Location: Unspecified
(51.0950°N, 12.9690°E)
Time: 13:33:40
(UTC+00:00)

FENGYUN 1C DEB - Visible Passes

Search period start: 03 October 2024 00:00
Search period end: 13 October 2024 00:00
Orbit: 754 x 1030 km, 98.0° (Epoch: 02 October)

Date Brightness Start Highest point End Pass type
(mag) Time Alt. Az. Time Alt. Az. Time Alt. Az.
03 Oct ? 03:11:53 10° NE 03:16:56 25° E 03:21:43 10° SE visible
04 Oct ? 03:12:14 10° NE 03:17:16 25° E 03:22:02 10° SE visible
05 Oct ? 03:12:33 10° NE 03:17:35 25° E 03:22:21 10° SE visible
06 Oct ? 03:12:53 10° NNE 03:17:54 25° E 03:22:39 10° SE visible
07 Oct ? 03:13:12 10° NNE 03:18:13 25° E 03:22:57 10° SE visible
08 Oct ? 03:13:31 10° NNE 03:18:31 26° E 03:23:14 10° SE visible
09 Oct ? 03:13:49 10° NNE 03:18:49 26° E 03:23:31 10° SE visible
10 Oct ? 03:14:07 10° NNE 03:19:05 26° E 03:23:47 10° SE visible
11 Oct ? 03:14:25 10° NNE 03:19:22 26° E 03:24:02 10° SE visible
12 Oct ? 03:14:42 10° NNE 03:19:38 26° E 03:24:17 10° SE visible
